Flag for Cote d'Ivoire (Ivory Coast) Weather past 2 weeks in Abidjan, Cote d'Ivoire (Ivory Coast)

Now
75 °F

Passing clouds.


Feels Like: 73 °F
Forecast: 74 / 82 °F
Wind: 7 mph from West

Location: Abidjan Airport

Current Time: Sep 16, 2014 at 3:35:22 AM

Latest Report: Sep 16, 2014 at 3:00 AM


Visibility: 4 mi

Pressure: 29.86 "Hg

Humidity: 100%

Dew point: 75 °F

Location of AbidjanLocation

Historic Weather in Abidjan — Graph

°F

Abidjan temperature yesterday

Maximum temperature yesterday: 82 °F (at 1:00 PM)
Minimum temperature yesterday: 75 °F (at 12:00 AM)
Average temperature yesterday: 77 °F

Past Weeks' High & Low Weather Summary

 TemperatureHumidityPressure
High82 °F (Sep 1, 1:00 PM)100% (Sep 1, 7:00 AM)30.01 "Hg (Sep 1, 7:00 AM)
Low72 °F (Sep 12, 10:30 PM)70% (Sep 3, 11:30 AM)29.80 "Hg (Sep 12, 5:00 PM)
Average77 °F90%29.91 "Hg
* Reported Sep 1 2:00 AM — Sep 16 2:30 AM, Abidjan, Weather by CustomWeather, © 2014

Note: Actual official high and low records may vary slightly from our data, if they occured in-between our weather recording intervals... More about our weather records

Advertising

Abidjan weather history for September 2, 2014

 ConditionsComfort  
Time TempWeatherWind HumidityBarometerVisibility
12:00 AM
Sep 2
75 °FPartly cloudy.6 mph94%29.95 "HgN/A
12:30 AM75 °FPartly cloudy.6 mph94%29.92 "HgN/A
1:00 AM75 °FPartly cloudy.7 mph94%29.92 "HgN/A
1:30 AM75 °FPartly cloudy.6 mph94%29.89 "HgN/A
2:00 AM75 °FPartly cloudy.8 mph94%29.89 "Hg5 mi
2:30 AM75 °FPartly cloudy.8 mph94%29.89 "Hg5 mi
3:00 AM73 °FPartly cloudy.7 mph100%29.89 "Hg5 mi
3:30 AM73 °FPartly cloudy.7 mph100%29.89 "Hg5 mi
4:00 AM75 °FPartly cloudy.6 mph94%29.89 "Hg5 mi
4:30 AM75 °FPartly cloudy.6 mph94%29.89 "Hg5 mi
5:00 AM75 °FPartly cloudy.6 mph94%29.89 "Hg5 mi
5:30 AM75 °FPartly cloudy.5 mph94%29.89 "Hg5 mi
6:00 AM73 °FLight rain. Partly cloudy.5 mph100%29.89 "Hg4 mi
6:30 AM73 °FLight rain. Partly sunny.6 mph100%29.92 "Hg4 mi
7:00 AM73 °FBroken clouds.6 mph100%29.92 "Hg4 mi
7:30 AM75 °FBroken clouds.5 mph100%29.95 "Hg4 mi
8:00 AM75 °FBroken clouds.6 mph100%29.95 "Hg4 mi
8:30 AM77 °FPartly sunny.6 mph94%29.95 "Hg5 mi
9:00 AM77 °FPartly sunny.7 mph94%29.95 "Hg5 mi
9:30 AM77 °FPartly sunny.10 mph89%29.95 "HgN/A
10:00 AM79 °FPartly sunny.10 mph89%29.95 "HgN/A
10:30 AM77 °FPartly sunny.9 mph89%29.95 "HgN/A
11:00 AM77 °FMostly cloudy.9 mph89%29.95 "HgN/A
11:30 AM79 °FMostly cloudy.8 mph84%29.95 "HgN/A
12:00 PM77 °FMostly cloudy.9 mph94%29.95 "Hg4 mi
12:30 PM79 °FPartly sunny.14 mph84%29.92 "HgN/A
1:00 PM79 °FMore clouds than sun.13 mph84%29.92 "HgN/A
1:30 PM79 °FMore clouds than sun.14 mph84%29.92 "HgN/A
2:00 PM79 °FMore clouds than sun.12 mph84%29.89 "HgN/A
2:30 PM79 °FMore clouds than sun.12 mph84%29.89 "HgN/A
3:00 PM79 °FMore clouds than sun.12 mph84%29.89 "HgN/A
3:30 PM79 °FMore clouds than sun.10 mph84%29.86 "HgN/A
4:00 PM79 °FMore clouds than sun.10 mph84%29.86 "HgN/A
4:30 PM77 °FMore clouds than sun.10 mph89%29.86 "HgN/A
5:00 PM77 °FMore clouds than sun.10 mph89%29.89 "HgN/A
5:30 PM77 °FMore clouds than sun.9 mph89%29.89 "Hg5 mi
6:00 PM77 °FMore clouds than sun.7 mph89%29.89 "Hg5 mi
6:30 PM77 °FOvercast.7 mph89%29.89 "Hg5 mi
7:00 PM75 °FOvercast.7 mph94%29.89 "Hg5 mi
7:30 PM75 °FOvercast.8 mph94%29.92 "Hg5 mi
8:00 PM75 °FPassing clouds.10 mph94%29.92 "Hg5 mi
8:30 PM75 °FPassing clouds.9 mph94%29.92 "Hg6 mi
9:00 PM75 °FPassing clouds.8 mph94%29.92 "Hg6 mi
9:30 PM75 °FPassing clouds.7 mph94%29.95 "Hg6 mi
10:00 PM75 °FPassing clouds.9 mph89%29.95 "Hg6 mi
10:30 PM73 °FPassing clouds.8 mph100%29.95 "Hg6 mi
11:00 PM75 °FPassing clouds.8 mph94%29.95 "Hg6 mi
11:30 PM75 °FPassing clouds.7 mph94%29.95 "Hg6 mi
Weather by CustomWeather, © 2014

See weather overviewHow to use our weather pages